QZS-3 (MICHIBIKI-3)

Last updated on Tue Oct 28 2025 00:02:50 GMT+0000 (Coordinated Universal Time)

1 42917U 17048A 25300.49832637 -.00000336 00000+0 00000+0 0 9996 2 42917 0.0534 200.7481 0001701 356.1837 145.6476 1.00272864 29926
UTC large
Height (km)
Speed (km/s)
/
Latitude / Longitude
Inclination (degrees)
Orbital Period (minutes)
Azimuth
Elevation
Range (km)
Doppler Factor

Next 0 passes for location: London (51.5072 / 0.1276)

Sorry there are no passes over London.